Flight Track Log - Related Links

Times and Time Zones

All times are in EDT time to prevent confusion due to time zone crossing. See the ASQ6049 flight status page for this flight to view local times or setup timezone preferences in your user account.


Time Position Orientation Groundspeed Altitude Reporting Facility
EDT Latitude Longitude Course Direction KTS MPH feet Rate Location/Type
Sun 08:10:09 PM 40.7000 -74.1500 37° Northeast 161 185 1,600  Level New York TRACON
Sun 08:11:09 PM 40.7500 -74.1000 37° Northeast 233 268 2,800 1,850 Climbing New York TRACON
Sun 08:12:09 PM 40.7667 -74.1667 288° West 254 292 5,300 2,450 Climbing New York TRACON
Sun 08:13:09 PM 40.7500 -74.2667 258° West 263 303 7,700 2,250 Climbing New York TRACON
Sun 08:14:09 PM 40.7500 -74.3500 270° West 272 313 9,800 1,860 Climbing New York TRACON
Sun 08:15:18 PM 40.7622 -74.4669 278° West 287 330 11,700 1,569 Climbing New York Center
Sun 08:16:19 PM 40.7731 -74.5800 277° West 305 351 13,200 1,361 Climbing New York Center
Sun 08:17:17 PM 40.7797 -74.6928 275° West 312 359 14,400 1,350 Climbing New York Center
Sun 08:18:19 PM 40.7781 -74.8103 269° West 318 366 15,900 793 Climbing New York Center
Sun 08:19:18 PM 40.7325 -74.9200 241° Southwest 318 366 16,000 950 Climbing New York Center
Sun 08:20:19 PM 40.6703 -75.0256 232° Southwest 338 389 17,800 1,850 Climbing New York Center
Sun 08:21:18 PM 40.6253 -75.1186 238° Southwest 356 410 19,700 1,109 Climbing New York Center
Sun 08:22:18 PM 40.5775 -75.2247 239° Southwest 344 396 20,000 101 Climbing New York Center
Sun 08:23:17 PM 40.5208 -75.3439 238° Southwest 365 420 19,900 -50 Descending New York Center
Sun 08:24:19 PM 40.4656 -75.4794 242° Southwest 396 456 19,900  Level New York Center
Sun 08:25:20 PM 40.4122 -75.6147 243° Southwest 408 470 19,900 50 Level New York Center
Sun 08:26:18 PM 40.3564 -75.7553 243° Southwest 421 484 20,000  Climbing New York Center
Sun 08:27:19 PM 40.3069 -75.8853 244° Southwest 427 491 19,900  Descending New York Center
Sun 08:28:17 PM 40.2439 -76.0383 242° Southwest 427 491 20,000 50 Climbing New York Center
Sun 08:29:18 PM 40.1900 -76.1728 242° Southwest 422 486 20,000 -541 Level New York Center
Sun 08:30:19 PM 40.1239 -76.2925 234° Southwest 416 479 18,900 -1,261 Descending New York Center
Sun 08:31:17 PM 40.0647 -76.3992 234° Southwest 416 479 17,500 -1,206 Descending New York Center
Sun 08:33:33 PM 39.9403 -76.6789 240° Southwest 390 449 15,000 -761 Descending Washington Center
Sun 08:34:34 PM 39.8756 -76.8086 237° Southwest 391 450 15,000  Level Washington Center
Sun 08:35:26 PM 39.8167 -76.9167 235° Southwest 395 455 15,000 -429 Level Potomac TRACON
Sun 08:36:26 PM 39.7667 -77.0500 244° Southwest 398 458 14,200 -1,400 Descending Potomac TRACON
Sun 08:37:26 PM 39.7167 -77.1500 237° Southwest 367 422 12,200 -1,857 Descending Potomac TRACON
Sun 08:38:32 PM 39.6500 -77.2667 233° Southwest 322 371 10,300 -1,300 Descending Potomac TRACON
Sun 08:39:26 PM 39.6167 -77.3333 237° Southwest 282 325 9,600 -895 Descending Potomac TRACON
Sun 08:40:26 PM 39.5333 -77.3500 189° South 273 314 8,600 -1,000 Descending Potomac TRACON
Sun 08:41:26 PM 39.4500 -77.3667 189° South 290 334 7,600 -1,000 Descending Potomac TRACON
Sun 08:42:26 PM 39.3667 -77.3667 180° South 275 316 6,600 -994 Descending Potomac TRACON
Sun 08:44:27 PM 39.2167 -77.3667 180° South 271 312 4,600 -862 Descending Potomac TRACON
Sun 08:45:27 PM 39.1500 -77.3667 180° South 273 314 4,000 -387 Descending Potomac TRACON
Sun 08:46:00 PM 39.1128 -77.3636 176° South 273 314 4,000 -191 Level Washington Center
Sun 08:47:01 PM 39.0381 -77.3619 179° South 271 312 3,700 -639 Descending Washington Center
Sun 08:48:02 PM 38.9639 -77.3578 177° South 268 308 2,700 -816 Descending Washington Center
Sun 08:49:06 PM 38.8911 -77.3533 177° South 264 304 2,000 -339 Descending Washington Center
Sun 08:50:06 PM 38.8350 -77.3664 190° South 215 247 2,000 -194 Level Washington Center
Sun 08:51:10 PM 38.8622 -77.4078 310° West 171 197 1,600 -480 Descending Washington Center
Sun 08:52:11 PM 38.8917 -77.4364 323° Northwest 154 177 1,000 -576 Descending Washington Center
Sun 08:53:15 PM 38.9353 -77.4361 360° North 151 174 400 -563 Descending Washington Center

Login

Don't have an account? Register now (free) for customized features, flight alerts, and more!